Observations for Trim Market St
| Time | AQI | Temp °C | Hum % | Pres Pa | CO μg/m³ | H₂S μg/m³ | NO μg/m³ | NO₂ μg/m³ | O₃ μg/m³ | SO₂ μg/m³ | PM1 μg/m³ | PM2.5 μg/m³ | PM10 μg/m³ |
|---|---|---|---|---|---|---|---|---|---|---|---|---|---|
| Monday 13 July 2026 | |||||||||||||
| 15:42 | 1 | 33.5 | 30 | 66,260 | 0 | 0 | 0 | 0.2 | 34.72 | 0 | 0.71 | 4.39 | 4.83 |
| 15:41 | 1 | 33.4 | 30 | 66,264 | 0 | 0 | 0 | 4.73 | 33.09 | 0 | 1.43 | 4.93 | 5.42 |
| 15:40 | 1 | 33.4 | 30 | 66,268 | 0 | 0 | 0 | 9.63 | 40.69 | 0 | 2.14 | 5.47 | 6.02 |
| 15:38 | 1 | 33.4 | 30 | 66,299 | 0 | 0 | 0 | 4.64 | 37.09 | 0 | 0.71 | 3.85 | 4.23 |
| 15:33 | 1 | 33.4 | 30 | 66,278 | 0 | 0 | 0 | 2.68 | 41.84 | 0 | 2.14 | 5.5 | 5.79 |
| 15:26 | 1 | 33.3 | 29 | 66,254 | 0 | 0.26 | 0 | 2.47 | 46.13 | 0 | 0.71 | 3.89 | 4.28 |
| 15:25 | 1 | 33.3 | 29 | 66,254 | 0 | 0 | 0 | 0.79 | 35.68 | 0 | 1.43 | 4.44 | 4.89 |
| 15:23 | 1 | 33.3 | 29 | 66,258 | 0 | 0 | 0 | 1.21 | 40.96 | 0 | 1.43 | 4.45 | 4.9 |
| 15:22 | 1 | 33.4 | 29 | 66,266 | 0 | 0 | 0 | 0 | 44.03 | 0 | 0.71 | 4.46 | 4.9 |
| 15:21 | 1 | 33.4 | 29 | 66,301 | 0 | 0 | 0 | 0 | 44.39 | 0 | 0.71 | 4.46 | 4.91 |
| 15:19 | 1 | 33.5 | 28 | 66,294 | 0 | 0 | 0 | 2.85 | 43.38 | 0 | 0.71 | 4.49 | 4.94 |
| 15:18 | 1 | 33.5 | 28 | 66,307 | 0 | 0 | 0 | 0 | 41.63 | 0 | 1.43 | 4.49 | 4.94 |
| 15:16 | 1 | 33.7 | 28 | 66,325 | 0 | 0 | 0 | 0 | 42.99 | 0 | 1.43 | 4.51 | 4.96 |
| 15:15 | 1 | 33.7 | 28 | 66,321 | 0 | 0 | 0 | 0 | 32.38 | 0 | 1.43 | 5.05 | 5.56 |
| 15:14 | 1 | 33.8 | 28 | 66,343 | 0 | 0 | 0 | 0 | 35 | 0 | 1.43 | 5.05 | 5.56 |
| 15:13 | 1 | 33.8 | 27 | 66,341 | 0 | 0 | 0 | 0 | 40.56 | 0 | 0.71 | 3.97 | 4.88 |
| 15:12 | 1 | 33.9 | 27 | 66,339 | 0 | 0 | 0 | 0 | 37.7 | 0 | 0.71 | 5.06 | 5.57 |
| 15:08 | 1 | 34 | 27 | 66,357 | 0 | 0 | 0 | 0 | 37.8 | 0 | 2.14 | 5.62 | 5.76 |
| 15:07 | 1 | 34 | 27 | 66,351 | 0 | 0 | 0 | 0 | 25.29 | 0 | 0.71 | 4.52 | 4.97 |
| 15:04 | 1 | 34.1 | 28 | 66,327 | 0 | 0 | 0 | 0 | 38.99 | 0 | 0.71 | 3.93 | 4.03 |